• In Belgium
  • List of Countries
  • For 7 days
  • Water Temperature
  • Satellite Maps
  • Weather Map
  • Weather Widgets
  • user-avatar
    Login

    Hourly Weather Dearborn Heights

    Today, 24 February, Saturday

    Time Temperature Precipitation Wind Pressure Humidity
    00:00 +3°C° 0 mm 2 mps 750 mmHg 80%
    01:00 +3°C° 0 mm 2 mps 750 mmHg 81%
    02:00 +3°C° 0 mm 2 mps 750 mmHg 82%
    03:00 +2°C° 0 mm 2 mps 750 mmHg 83%
    04:00 +2°C° 0 mm 2 mps 750 mmHg 83%
    05:00 +2°C° 0 mm 2 mps 750 mmHg 84%
    06:00 +1°C° 0 mm 2 mps 750 mmHg 84%
    07:00 +2°C° 0 mm 2 mps 750 mmHg 82%
    08:00 +2°C° 0 mm 2 mps 750 mmHg 79%
    09:00 +1°C° 0 mm 3 mps 750 mmHg 76%
    10:00 +2°C° 0 mm 3 mps 749 mmHg 76%
    11:00 +2°C° 0 mm 3 mps 749 mmHg 75%
    12:00 +2°C° 0 mm 3 mps 749 mmHg 74%
    13:00 +3°C° 0 mm 3 mps 748 mmHg 72%
    14:00 +3°C° 0 mm 4 mps 747 mmHg 71%
    15:00 +4°C° 0 mm 4 mps 746 mmHg 69%
    16:00 +2°C° 0 mm 5 mps 746 mmHg 72%
    17:00 +2°C° 0 mm 5 mps 745 mmHg 75%
    18:00 +1°C° 0 mm 5 mps 745 mmHg 78%
    19:00 +1°C° 0 mm 5 mps 743 mmHg 81%
    20:00 +1°C° 0 mm 6 mps 742 mmHg 84%
    21:00 +1°C° 0 mm 6 mps 741 mmHg 87%
    22:00 +1°C° 0.3 mm 6 mps 739 mmHg 89%
    23:00 +1°C° 0.3 mm 6 mps 738 mmHg 92%

    Tomorrow, 25 February, Sunday

    Time Temperature Precipitation Wind Pressure Humidity
    00:00 +1°C° 0.3 mm 6 mps 736 mmHg 94%
    01:00 +2°C° 0.1 mm 5 mps 735 mmHg 95%
    02:00 +4°C° 0.1 mm 4 mps 733 mmHg 97%
    03:00 +5°C° 0.1 mm 4 mps 731 mmHg 98%
    04:00 +6°C° 0.1 mm 5 mps 732 mmHg 94%
    05:00 +8°C° 0.1 mm 7 mps 732 mmHg 90%
    06:00 +10°C° 0.1 mm 9 mps 732 mmHg 86%
    07:00 +7°C° 0 mm 9 mps 734 mmHg 79%
    08:00 +6°C° 0 mm 9 mps 736 mmHg 72%
    09:00 +3°C° 0 mm 9 mps 737 mmHg 64%
    10:00 +5°C° 0 mm 9 mps 738 mmHg 58%
    11:00 +5°C° 0 mm 9 mps 739 mmHg 52%
    12:00 +6°C° 0 mm 9 mps 740 mmHg 46%
    13:00 +5°C° 0 mm 9 mps 740 mmHg 44%
    14:00 +5°C° 0 mm 8 mps 741 mmHg 43%
    15:00 +5°C° 0 mm 8 mps 741 mmHg 41%
    16:00 +4°C° 0 mm 7 mps 742 mmHg 44%
    17:00 +3°C° 0 mm 6 mps 743 mmHg 47%
    18:00 +3°C° 0 mm 5 mps 744 mmHg 50%
    19:00 +2°C° 0 mm 5 mps 744 mmHg 52%
    20:00 +2°C° 0 mm 5 mps 745 mmHg 53%
    21:00 +2°C° 0 mm 5 mps 745 mmHg 55%
    22:00 +2°C° 0 mm 5 mps 746 mmHg 57%
    23:00 +1°C° 0 mm 5 mps 746 mmHg 58%

    Day after tomorrow, 26 February, Monday

    Time Temperature Precipitation Wind Pressure Humidity
    00:00 +1°C° 0 mm 5 mps 746 mmHg 60%
    01:00 +1°C° 0 mm 4 mps 746 mmHg 63%
    02:00 0°C° 0 mm 4 mps 746 mmHg 66%
    03:00 0°C° 0 mm 3 mps 747 mmHg 69%
    04:00 0°C° 0 mm 3 mps 747 mmHg 71%
    05:00 0°C° 0 mm 3 mps 747 mmHg 73%
    06:00 -1°C° 0 mm 3 mps 747 mmHg 74%
    07:00 +1°C° 0 mm 3 mps 748 mmHg 70%
    08:00 +2°C° 0 mm 3 mps 748 mmHg 65%
    09:00 +3°C° 0 mm 3 mps 749 mmHg 60%
    10:00 +4°C° 0 mm 4 mps 749 mmHg 55%
    11:00 +6°C° 0 mm 4 mps 749 mmHg 49%
    12:00 +7°C° 0 mm 4 mps 750 mmHg 44%
    13:00 +7°C° 0 mm 5 mps 749 mmHg 41%
    14:00 +8°C° 0 mm 5 mps 749 mmHg 39%
    15:00 +8°C° 0 mm 5 mps 749 mmHg 36%
    16:00 +7°C° 0 mm 4 mps 750 mmHg 41%
    17:00 +7°C° 0 mm 3 mps 750 mmHg 45%
    18:00 +6°C° 0 mm 2 mps 750 mmHg 50%
    19:00 +5°C° 0 mm 2 mps 751 mmHg 52%
    20:00 +4°C° 0 mm 2 mps 751 mmHg 55%
    21:00 +5°C° 0 mm 1 mps 751 mmHg 57%
    22:00 +4°C° 0 mm 1 mps 751 mmHg 58%
    23:00 +4°C° 0 mm 1 mps 751 mmHg 59%

    27 February, Tuesday

    Time Temperature Precipitation Wind Pressure Humidity
    00:00 +3°C° 0 mm 2 mps 751 mmHg 60%
    01:00 +2°C° 0 mm 2 mps 751 mmHg 63%
    02:00 +2°C° 0 mm 2 mps 751 mmHg 66%
    03:00 +2°C° 0 mm 2 mps 751 mmHg 69%
    04:00 +2°C° 0 mm 2 mps 751 mmHg 71%
    05:00 +1°C° 0 mm 3 mps 751 mmHg 74%
    06:00 +1°C° 0 mm 3 mps 752 mmHg 77%
    07:00 +2°C° 0 mm 3 mps 752 mmHg 74%
    08:00 +4°C° 0 mm 4 mps 752 mmHg 71%
    09:00 +6°C° 0 mm 4 mps 752 mmHg 68%
    10:00 +7°C° 0 mm 5 mps 751 mmHg 62%
    11:00 +9°C° 0 mm 5 mps 750 mmHg 56%
    12:00 +11°C° 0 mm 6 mps 750 mmHg 50%
    13:00 +11°C° 0 mm 6 mps 749 mmHg 49%
    14:00 +13°C° 0 mm 6 mps 748 mmHg 49%
    15:00 +13°C° 0 mm 6 mps 747 mmHg 49%
    16:00 +12°C° 0 mm 5 mps 747 mmHg 54%
    17:00 +10°C° 0 mm 5 mps 747 mmHg 58%
    18:00 +10°C° 0 mm 4 mps 746 mmHg 63%
    19:00 +8°C° 0 mm 4 mps 746 mmHg 64%
    20:00 +7°C° 0 mm 4 mps 746 mmHg 66%
    21:00 +7°C° 0 mm 4 mps 746 mmHg 67%
    22:00 +6°C° 0 mm 4 mps 745 mmHg 69%
    23:00 +6°C° 0 mm 4 mps 745 mmHg 70%

    28 February, Wednesday

    Time Temperature Precipitation Wind Pressure Humidity
    00:00 +6°C° 0 mm 4 mps 744 mmHg 72%
    01:00 +5°C° 0 mm 4 mps 744 mmHg 73%
    02:00 +5°C° 0 mm 4 mps 743 mmHg 75%
    03:00 +5°C° 0 mm 3 mps 743 mmHg 76%
    04:00 +5°C° 0 mm 3 mps 743 mmHg 77%
    05:00 +5°C° 0 mm 3 mps 743 mmHg 79%
    06:00 +5°C° 0 mm 3 mps 743 mmHg 80%
    07:00 +5°C° 0.1 mm 3 mps 742 mmHg 80%
    08:00 +7°C° 0.1 mm 2 mps 742 mmHg 81%
    09:00 +7°C° 0.1 mm 2 mps 742 mmHg 81%
    10:00 +8°C° 0 mm 2 mps 742 mmHg 78%
    11:00 +9°C° 0 mm 2 mps 742 mmHg 76%
    12:00 +11°C° 0 mm 1 mps 742 mmHg 73%
    13:00 +10°C° 0 mm 2 mps 741 mmHg 71%
    14:00 +12°C° 0 mm 2 mps 741 mmHg 70%
    15:00 +13°C° 0 mm 2 mps 740 mmHg 68%
    16:00 +12°C° 0.2 mm 2 mps 740 mmHg 74%
    17:00 +10°C° 0.2 mm 2 mps 740 mmHg 80%
    18:00 +9°C° 0.2 mm 2 mps 740 mmHg 86%
    19:00 +8°C° 0.2 mm 3 mps 740 mmHg 88%
    20:00 +8°C° 0.2 mm 3 mps 739 mmHg 91%
    21:00 +8°C° 0.2 mm 3 mps 739 mmHg 93%
    22:00 +7°C° 0.1 mm 4 mps 738 mmHg 94%
    23:00 +6°C° 0.1 mm 4 mps 737 mmHg 95%

    1 March, Thursday

    Time Temperature Precipitation Wind Pressure Humidity
    00:00 +6°C° 0.1 mm 4 mps 737 mmHg 96%
    01:00 +6°C° 0.3 mm 5 mps 735 mmHg 95%
    02:00 +5°C° 0.3 mm 6 mps 734 mmHg 95%
    03:00 +5°C° 0.3 mm 6 mps 733 mmHg 95%
    04:00 +5°C° 2.5 mm 7 mps 731 mmHg 94%
    05:00 +5°C° 2.5 mm 8 mps 730 mmHg 94%
    06:00 +5°C° 2.5 mm 8 mps 728 mmHg 93%
    07:00 +6°C° 3.1 mm 8 mps 727 mmHg 94%
    08:00 +6°C° 3.1 mm 7 mps 726 mmHg 94%
    09:00 +7°C° 3.1 mm 6 mps 725 mmHg 94%
    10:00 +8°C° 1.4 mm 6 mps 724 mmHg 89%
    11:00 +9°C° 1.4 mm 6 mps 723 mmHg 84%
    12:00 +10°C° 1.4 mm 6 mps 723 mmHg 79%
    13:00 +10°C° 0.2 mm 6 mps 723 mmHg 77%
    14:00 +9°C° 0.2 mm 6 mps 723 mmHg 75%
    15:00 +9°C° 0.2 mm 6 mps 722 mmHg 73%
    16:00 +8°C° 0.8 mm 5 mps 723 mmHg 78%
    17:00 +7°C° 0.8 mm 5 mps 723 mmHg 83%
    18:00 +6°C° 0.8 mm 5 mps 724 mmHg 87%
    19:00 +5°C° 1.1 mm 6 mps 724 mmHg 87%
    20:00 +4°C° 1.1 mm 6 mps 725 mmHg 86%
    21:00 +4°C° 1.1 mm 7 mps 726 mmHg 85%
    22:00 +2°C° 0.3 mm 8 mps 727 mmHg 84%
    23:00 +2°C° 0.3 mm 8 mps 728 mmHg 84%
    Show more